Shiyan 6

operational
NORAD ID: 43711 Int'l Des: 2018-094 Owner: CNSA Country: CN
LEOCIRCULARRETROGRADESSO

关于 Shiyan 6

正在加载描述...

实时位置

正在加载3D地球...

即将过境

高度历史

Altitude vs Time

uPlot chart will show altitude changes over time

两行轨道根数

1 43711U 18094B 26063.46278595 .00009224 00000-0 33358-3 0 9993
2 43711 97.3661 78.6551 0013987 153.5714 206.6242 15.28565350405489
Epoch: Mar 4, 2026 • Age: 20 hours

当前状态

高度 511.1 km
速度 7.60 km/s
星下点 -58.96°S, 15.32°W
发射日期 Nov 19, 2018
运行时间 7.2 years
类型 other

技术详情

分类 Payload
质量 1000.00 kg
干质量 900.00 kg
总质量 1000.00 kg
长度 2.00 m
直径 1.00 m
跨度 4.00 m
形状 Box+2 pan
制造商 DFHS
平台类型 SW6
阶段状态 In Orbit
所有者/国家 CNSA/CN

大型星座

Loading constellations...